[[{"header":{"parameterUnit":"m.s-1","parameterCategory":2,"la1":30.2991,"la2":30.254,"lo1":-89.0895,"lo2":-89.0444,"dy":0.0017,"dx":0.0017,"nx":28,"ny":28,"refTime":"2024-08-16T03:00:00:Z","depth":"0","parameterNumber":2,"parameterNumberName":"U-component_of_CURRENTS"},"data":[0,0,0,0,0,0,0,0,0,0,0,0,0,0,0,0,0,0,0,0,0,0,0,0,0,0,0,0,0,0,0,0,0,0,0,0,0,0,0,0,0,0,0,0,0,0,0,0,0,0,0,0,0,0,0,0,0,0,0.4214,0.4215,0,0.4348,0.4349,0.435,0.4381,0.4381,0.438,0.438,0.4429,0.443,0.4432,0,0,0,0,0,0,0,0,0,0,0,0,0,0.3965,0.3969,0.4213,0.4216,0.4218,0.4348,0.4349,0.4351,0.4381,0.4381,0.438,0.438,0.4428,0.443,0.4432,0,0,0,0,0,0,0,0,0,0,0,0,0,0.4079,0.3971,0.4213,0.4252,0.4257,0.4348,0.4349,0.4351,0.4382,0.4381,0.438,0.4379,0.4427,0.443,0.4433,0.4464,0,0,0.4441,0.4442,0,0,0,0,0,0,0,0,0.4073,0.4088,0.4244,0.425,0.4256,0.4351,0.428,0.4386,0.4382,0.433,0.438,0.4379,0.4398,0.4403,0.4425,0.4467,0.4469,0.4441,0.4442,0.4444,0.4444,0,0,0,0,0,0,0,0.4065,0.4082,0.4262,0.4247,0.4254,0.4257,0.4272,0.43,0.4361,0.4334,0.4338,0.436,0.44,0.4422,0.4426,0.4469,0.4441,0.4443,0.4445,0.4446,0.449,0.449,0,0,0,0,0,0,0.406,0.4075,0.4258,0.4267,0.4166,0.4262,0.4279,0.4318,0.4363,0.4372,0.4361,0.4361,0.4418,0.4423,0.4428,0.4535,0.4444,0.4446,0.4448,0.4491,0.449,0.449,0,0,0,0,0,0,0.4055,0.4076,0.4253,0.4176,0.4199,0.4268,0.4311,0.4321,0.4349,0.4385,0.4391,0.438,0.4418,0.4424,0.4445,0.4534,0.4447,0.445,0.4491,0.4491,0.449,0.4705,0,0,0,0,0,0,0.4047,0.4073,0.4099,0.4177,0.4204,0.4318,0.4312,0.4324,0.4366,0.4368,0.4404,0.4407,0.4418,0.4441,0.4447,0.4536,0.4452,0.4492,0.4491,0.449,0.4698,0.4712,0.4723,0,0,0,0,0,0.4038,0.4081,0.41,0.4122,0.4238,0.432,0.4334,0.4375,0.4368,0.4394,0.4397,0.4406,0.444,0.4443,0.4451,0.4543,0.4492,0.4491,0.449,0.4693,0.4709,0.4723,0,0,0,0,0,0,0.3987,0.4091,0.4113,0.4185,0.4251,0.4327,0.4363,0.438,0.4407,0.4407,0.4414,0.4419,0.4487,0.4443,0.4446,0.4535,0.4463,0.4464,0.4614,0.4629,0.4641,0.4698,0.4454,0,0,0,0,0,0.3989,0.4049,0.4138,0.4195,0.4233,0.4295,0.4331,0.4365,0.4403,0.4416,0.4438,0.4445,0.4489,0.4498,0.4526,0.4566,0.4593,0.4613,0.4626,0.4637,0.4678,0.48,0.4832,0.4487,0.4487,0.4487,0,0,0.3987,0.4051,0.4085,0.4188,0.4243,0.4329,0.4315,0.4388,0.4456,0.4416,0.4496,0.4511,0.4508,0.4582,0.4603,0.4556,0.4739,0.4636,0.4648,0.4682,0.4804,0.4839,0.487,0.4486,0.4486,0.4486,0,0,0.4017,0.4071,0.4133,0.4201,0.4298,0.435,0.4371,0.4456,0.449,0.4554,0.4564,0.4625,0.4641,0.4703,0.4722,0.4802,0.482,0.4776,0.4888,0.5008,0.5041,0.507,0.5134,0.5168,0.4764,0.4764,0.4764,0,0.4012,0.4118,0.416,0.4246,0.4328,0.4363,0.4466,0.4509,0.4585,0.4629,0.4591,0.4711,0.4723,0.4859,0.489,0.4853,0.4885,0.4855,0.5038,0.5067,0.5094,0.5153,0.5187,0.4774,0.4773,0.4772,0.4771,0,0.4099,0.4192,0.4238,0.437,0.4447,0.4544,0.4627,0.4692,0.4725,0.4765,0.4888,0.4916,0.4984,0.5001,0.4981,0.5168,0.5118,0.5072,0.5033,0.5144,0.5195,0.5227,0.4789,0.4785,0.4782,0.478,0,0,0.4102,0.4271,0.4293,0.4389,0.4538,0.4617,0.4738,0.487,0.4951,0.5008,0.5132,0.5228,0.5231,0.5251,0.5254,0.5354,0.5574,0.5292,0.5294,0.5414,0.5812,0.565,0.5668,0.557,0.5577,0.5582,0.5771,0,0.4179,0.4354,0.4424,0.4611,0.4731,0.4822,0.4935,0.5042,0.51,0.5209,0.5272,0.5369,0.5322,0.5377,0.5482,0.5566,0.5669,0.5525,0.5635,0.5638,0.5531,0.5705,0.5368,0.5498,0.5802,0.5807,0.5811,0,0.4273,0.4386,0.4575,0.478,0.4839,0.4939,0.5147,0.5248,0.538,0.5421,0.5524,0.5542,0.5723,0.5642,0.588,0.5787,0.5827,0.5869,0.5876,0.5683,0.5538,0.543,0.5544,0.5367,0.586,0.5856,0.5852,0,0.431,0.4509,0.4667,0.4743,0.4956,0.5057,0.5167,0.5312,0.5406,0.5558,0.5628,0.5788,0.5885,0.6005,0.6068,0.6001,0.6302,0.6206,0.6098,0.6084,0.5798,0.5747,0.5806,0.6391,0.6391,0.639,0.639,0,0.4421,0.4558,0.4688,0.4793,0.4974,0.5099,0.5279,0.5392,0.5542,0.5643,0.573,0.5836,0.5986,0.6128,0.6173,0.6248,0.6389,0.6182,0.6157,0.585,0.5804,0.5629,0.5559,0.6397,0.6396,0.6394,0.6393,0,0.4504,0.4587,0.477,0.4953,0.5009,0.5142,0.5339,0.543,0.5579,0.5725,0.5783,0.5943,0.6107,0.6224,0.6422,0.6361,0.6268,0.6435,0.6036,0.596,0.5622,0.5573,0.5507,0.5359,0.6352,0.635,0.6348,0,0.4579,0.4678,0.485,0.4909,0.5001,0.5174,0.5264,0.5441,0.5522,0.5759,0.5817,0.6017,0.6074,0.6298,0.6275,0.6342,0.6193,0.6049,0.586,0.5619,0.555,0.5404,0.5275,0.556,0.5552,0.5545,0.554,0,0.4709,0.4746,0.4858,0.4961,0.5051,0.5176,0.5313,0.5387,0.5565,0.5659,0.576,0.5829,0.5972,0.5854,0.5945,0.5944,0.5718,0.5906,0.5787,0.5067,0.4788,0.4622,0.5399,0.5479,0.5486,0.549,0.5493,0.5496,0.4754,0.4826,0.4897,0.5004,0.507,0.513,0.5152,0.5251,0.5347,0.5365,0.556,0.5487,0.5445,0.5485,0.5476,0.5204,0.5305,0.4987,0.4992,0.4904,0.4621,0.5248,0.5209,0.5213,0.5217,0.522,0.5223,0,0.4776,0.4834,0.4921,0.4986,0.498,0.5055,0.5116,0.504,0.5013,0.5055,0.5042,0.4856,0.4718,0.4691,0.4511,0.4319,0.4162,0.4199,0.3917,0.3872,0.4532,0.4349,0.3961,0.3961,0.3962,0.3962,0.3962,0.3962,0.4777,0.4838,0.4879,0.4859,0.4865,0.4748,0.4719,0.4596,0.4553,0.4307,0.4114,0.4091,0.415,0.4038,0.3798,0.3697,0.3459,0.3254,0.3378,0.3808,0.3881,0.395,0.3764,0.326,0.3259,0.2497,0.2491,0.2487]},{"header":{"parameterUnit":"m.s-1","parameterCategory":2,"la1":30.2991,"la2":30.254,"lo1":-89.0895,"lo2":-89.0444,"dy":0.0017,"dx":0.0017,"nx":28,"ny":28,"refTime":"2024-08-16T03:00:00:Z","depth":"0","parameterNumber":3,"parameterNumberName":"V-component_of_CURRENTS"},"data":[0,0,0,0,0,0,0,0,0,0,0,0,0,0,0,0,0,0,0,0,0,0,0,0,0,0,0,0,0,0,0,0,0,0,0,0,0,0,0,0,0,0,0,0,0,0,0,0,0,0,0,0,0,0,0,0,0,0,0.0253,0.0253,0,0.023,0.023,0.023,0.0197,0.0196,0.0195,0.0195,0.0102,0.01,0.0098,0,0,0,0,0,0,0,0,0,0,0,0,0,0.0226,0.0227,0.0253,0.0253,0.0252,0.0231,0.023,0.023,0.0197,0.0196,0.0195,0.0194,0.0103,0.01,0.0098,0,0,0,0,0,0,0,0,0,0,0,0,0,0.0224,0.0227,0.0253,0.0233,0.0231,0.0231,0.023,0.023,0.0197,0.0196,0.0195,0.0194,0.0103,0.0101,0.0098,0.0099,0,0,0.0089,0.0088,0,0,0,0,0,0,0,0,0.0224,0.0225,0.0236,0.0234,0.0232,0.0215,0.0187,0.0183,0.0197,0.021,0.0195,0.0194,0.0134,0.0128,0.0128,0.0095,0.0091,0.0089,0.0087,0.0086,0.0085,0,0,0,0,0,0,0,0.0225,0.0226,0.0244,0.0236,0.0233,0.0211,0.021,0.0186,0.0176,0.0209,0.0206,0.0203,0.0132,0.0131,0.0125,0.0089,0.0089,0.0086,0.0085,0.0084,0.0066,0.0067,0,0,0,0,0,0,0.023,0.0227,0.0245,0.0244,0.0225,0.0212,0.0211,0.0222,0.0178,0.0171,0.0204,0.0202,0.0136,0.0128,0.0122,0.0155,0.0086,0.0083,0.0082,0.0065,0.0066,0.0067,0,0,0,0,0,0,0.023,0.0233,0.0246,0.0233,0.0233,0.0214,0.0226,0.0222,0.0224,0.0175,0.0167,0.0211,0.0135,0.0126,0.0111,0.015,0.0082,0.0079,0.0063,0.0065,0.0067,0.02,0,0,0,0,0,0,0.023,0.0233,0.025,0.0234,0.0234,0.0264,0.0226,0.0222,0.0224,0.022,0.0178,0.0169,0.0133,0.0115,0.0108,0.0145,0.0077,0.0062,0.0064,0.0066,0.0194,0.0206,0.0217,0,0,0,0,0,0.0229,0.0267,0.0251,0.0254,0.0256,0.0266,0.0265,0.0246,0.0225,0.0242,0.0207,0.017,0.0125,0.0114,0.0105,0.0142,0.0061,0.0063,0.0066,0.0189,0.0204,0.0216,0,0,0,0,0,0,0.0267,0.0266,0.0249,0.0284,0.0279,0.026,0.028,0.0256,0.0243,0.024,0.0183,0.0173,0.0174,0.0137,0.0126,0.0142,0.0088,0.0089,0.0184,0.0198,0.0209,0.0281,0.0075,0,0,0,0,0,0.0282,0.031,0.0293,0.0323,0.0326,0.0301,0.0303,0.0289,0.0271,0.0265,0.0232,0.0198,0.0179,0.0171,0.0144,0.0154,0.0154,0.0171,0.0182,0.0192,0.0244,0.0271,0.0291,0.0076,0.0076,0.0076,0,0,0.0303,0.0308,0.0322,0.0332,0.0329,0.0359,0.0302,0.0319,0.0343,0.0256,0.028,0.0234,0.0188,0.02,0.0198,0.0175,0.0249,0.0196,0.0205,0.0253,0.0277,0.0298,0.0317,0.0078,0.0078,0.0078,0,0,0.037,0.0367,0.0413,0.0419,0.0422,0.041,0.0417,0.0403,0.0398,0.0405,0.0351,0.0344,0.03,0.0296,0.0282,0.0341,0.0303,0.0311,0.0436,0.0461,0.048,0.0497,0.0515,0.0532,0.0323,0.0324,0.0324,0,0.0394,0.0452,0.0427,0.0473,0.0496,0.044,0.0496,0.0486,0.0466,0.0479,0.0431,0.0416,0.0363,0.0408,0.0423,0.0374,0.0373,0.0389,0.0481,0.0497,0.0512,0.0526,0.0544,0.033,0.033,0.0329,0.0328,0,0.0494,0.0539,0.0571,0.0612,0.0629,0.067,0.0651,0.0661,0.0636,0.0625,0.0652,0.0594,0.0596,0.0564,0.0511,0.0591,0.0549,0.0488,0.0456,0.0543,0.055,0.0566,0.034,0.0338,0.0336,0.0334,0,0,0.0559,0.0628,0.0643,0.0688,0.0711,0.0739,0.0782,0.0816,0.086,0.083,0.0906,0.086,0.083,0.0815,0.0749,0.0768,0.0848,0.0685,0.0682,0.0722,0.0906,0.08,0.0806,0.0796,0.08,0.0803,0.0865,0,0.0649,0.0767,0.0777,0.0887,0.0946,0.0926,0.0978,0.0994,0.0987,0.1038,0.1003,0.1034,0.0923,0.0932,0.0939,0.0885,0.0898,0.0838,0.0801,0.0801,0.0713,0.0825,0.0731,0.0773,0.088,0.0883,0.0885,0,0.0749,0.0818,0.0944,0.1038,0.1064,0.1112,0.1192,0.1235,0.1272,0.127,0.1299,0.1258,0.131,0.1181,0.1183,0.1147,0.1051,0.099,0.099,0.087,0.0727,0.0703,0.0797,0.0561,0.0909,0.0907,0.0905,0,0.082,0.0939,0.1047,0.1079,0.1167,0.1219,0.1266,0.1309,0.1369,0.1433,0.1492,0.1506,0.155,0.1467,0.1341,0.127,0.133,0.1204,0.1021,0.1011,0.0919,0.0895,0.0804,0.1199,0.1199,0.1199,0.1199,0,0.092,0.1009,0.1086,0.1147,0.1274,0.1308,0.1433,0.1467,0.1554,0.1678,0.163,0.174,0.1625,0.1624,0.1459,0.1329,0.1424,0.1097,0.1042,0.0956,0.0936,0.0711,0.0599,0.1201,0.1201,0.12,0.12,0,0.0987,0.1042,0.1163,0.127,0.131,0.14,0.153,0.162,0.1691,0.1863,0.1906,0.1962,0.1976,0.1828,0.1724,0.1497,0.1215,0.1264,0.117,0.1102,0.0651,0.0551,0.045,0.0371,0.108,0.1078,0.1076,0,0.104,0.1109,0.1238,0.1306,0.1358,0.1485,0.1577,0.1673,0.1788,0.2012,0.2124,0.2192,0.2267,0.2075,0.1715,0.1436,0.1206,0.1095,0.0923,0.0666,0.0515,0.0431,0.0368,0.0852,0.0849,0.0846,0.0844,0,0.1127,0.1159,0.1242,0.1377,0.1483,0.1624,0.1775,0.1893,0.2063,0.2242,0.249,0.258,0.238,0.2086,0.1652,0.1402,0.0903,0.1024,0.0801,0.0389,0.0259,0.0141,0.0764,0.082,0.0822,0.0824,0.0825,0.0826,0.1171,0.1229,0.132,0.1448,0.1573,0.176,0.1914,0.211,0.2361,0.2669,0.2733,0.2889,0.2371,0.1782,0.1441,0.0663,0.0732,0.0368,0.029,0.0248,0.0103,0.0669,0.0618,0.0619,0.062,0.0621,0.0622,0,0.122,0.1278,0.1392,0.1554,0.1703,0.1774,0.2044,0.2231,0.2569,0.2825,0.3042,0.2791,0.2171,0.152,0.0502,0.0006,-0.0145,-0.0253,-0.039,-0.0401,0.0133,0.0047,-0.0182,-0.0182,-0.0182,-0.0181,-0.0181,-0.0181,0.1247,0.1341,0.1393,0.1627,0.176,0.2012,0.219,0.2479,0.2707,0.2995,0.3034,0.3017,0.2403,0.0738,-0.0406,-0.0638,-0.0877,-0.099,-0.104,-0.0723,-0.0671,-0.0622,-0.073,-0.1119,-0.112,-0.1568,-0.1573,-0.1577]}],[{"header":{"parameterUnit":"m.s-1","parameterCategory":2,"la1":30.2991,"la2":30.254,"lo1":-89.0895,"lo2":-89.0444,"dy":0.0017,"dx":0.0017,"nx":28,"ny":28,"refTime":"2024-08-16T03:00:00:Z","depth":"2","parameterNumber":2,"parameterNumberName":"U-component_of_CURRENTS"},"data":[0,0,0,0,0,0,0,0,0,0,0,0,0,0,0,0,0,0,0,0,0,0,0,0,0,0,0,0,0,0,0,0,0,0,0,0,0,0,0,0,0,0,0,0,0,0,0,0,0,0,0,0,0,0,0,0,0,0,0.3165,0.3167,0,0.3243,0.3243,0.3244,0.3282,0.3282,0.3283,0.3284,0.3326,0.3326,0.3327,0,0,0,0,0,0,0,0,0,0,0,0,0,0.3024,0.3026,0.3165,0.3167,0.3168,0.3243,0.3243,0.3244,0.3282,0.3282,0.3283,0.3284,0.3326,0.3326,0.3327,0,0,0,0,0,0,0,0,0,0,0,0,0,0.3084,0.3026,0.3165,0.3202,0.3207,0.3243,0.3243,0.3244,0.3281,0.3282,0.3284,0.3285,0.3326,0.3326,0.3327,0.331,0,0,0.3329,0.3329,0,0,0,0,0,0,0,0,0.3081,0.3088,0.3195,0.32,0.3205,0.3261,0.321,0.3267,0.3281,0.3245,0.3284,0.3285,0.3305,0.3308,0.3309,0.3312,0.3314,0.3329,0.333,0.333,0.333,0,0,0,0,0,0,0,0.3076,0.3085,0.3188,0.3197,0.3203,0.3207,0.3216,0.322,0.3261,0.3248,0.3253,0.3274,0.3307,0.3308,0.3311,0.3314,0.3329,0.333,0.333,0.333,0.3414,0.3416,0,0,0,0,0,0,0.3083,0.3081,0.3186,0.3191,0.3153,0.3209,0.3219,0.3235,0.3262,0.327,0.3273,0.3275,0.3307,0.331,0.3312,0.341,0.333,0.3331,0.3331,0.3412,0.3414,0.3416,0,0,0,0,0,0,0.308,0.3091,0.3183,0.3144,0.3157,0.3212,0.3229,0.3237,0.3262,0.3283,0.3288,0.3294,0.3308,0.3311,0.3379,0.3408,0.3331,0.3331,0.341,0.3413,0.3415,0.3532,0,0,0,0,0,0,0.3075,0.3089,0.3109,0.3145,0.316,0.3236,0.3229,0.3238,0.3275,0.328,0.3302,0.3306,0.3309,0.3379,0.338,0.3408,0.3332,0.3408,0.3411,0.3414,0.3526,0.3538,0.3549,0,0,0,0,0,0.307,0.3103,0.3109,0.3123,0.3183,0.3239,0.3247,0.3282,0.3276,0.3303,0.334,0.3307,0.3399,0.3382,0.3383,0.3411,0.3406,0.341,0.3414,0.3521,0.3536,0.3549,0,0,0,0,0,0,0.3056,0.3112,0.3119,0.3168,0.3213,0.3249,0.3276,0.329,0.3334,0.3347,0.3345,0.3354,0.3426,0.3399,0.3379,0.3443,0.3389,0.3394,0.347,0.3484,0.3495,0.3479,0.3333,0,0,0,0,0,0.306,0.3099,0.3147,0.3188,0.3204,0.3235,0.3261,0.3295,0.3337,0.3357,0.3353,0.3374,0.3435,0.3448,0.3477,0.3508,0.352,0.352,0.3532,0.3542,0.3529,0.3635,0.3656,0.3429,0.3429,0.3429,0,0,0.307,0.3104,0.3129,0.3188,0.3211,0.3246,0.3252,0.3312,0.3358,0.3354,0.3387,0.3422,0.3459,0.3521,0.3544,0.3504,0.3611,0.3547,0.3556,0.3537,0.3641,0.3664,0.3683,0.3432,0.3432,0.3431,0,0,0.3101,0.3129,0.3166,0.3187,0.3247,0.328,0.33,0.3334,0.3371,0.3474,0.3454,0.3525,0.3587,0.36,0.3634,0.372,0.3685,0.3694,0.3725,0.383,0.385,0.3867,0.391,0.3931,0.3682,0.3683,0.3683,0,0.3106,0.3138,0.3188,0.3208,0.3228,0.3291,0.3321,0.3377,0.3431,0.3466,0.3523,0.3614,0.3654,0.3703,0.3745,0.375,0.3766,0.3677,0.3848,0.3866,0.3882,0.3921,0.3943,0.3689,0.3688,0.3688,0.3687,0,0.3141,0.316,0.3175,0.3219,0.3271,0.33,0.3384,0.3423,0.3512,0.3579,0.3685,0.3756,0.3816,0.3825,0.3843,0.3908,0.3869,0.3872,0.3818,0.3912,0.3947,0.3967,0.3698,0.3695,0.3694,0.3692,0,0,0.3143,0.3187,0.3184,0.3185,0.3263,0.3303,0.3397,0.3493,0.3565,0.3673,0.3775,0.389,0.3916,0.3947,0.3919,0.3978,0.414,0.396,0.3963,0.4009,0.432,0.4165,0.4171,0.4169,0.4173,0.4176,0.4298,0,0.3133,0.3163,0.3198,0.3225,0.3245,0.3306,0.3398,0.3512,0.3656,0.3768,0.3876,0.3989,0.3966,0.4014,0.4083,0.4136,0.4196,0.4103,0.4213,0.4215,0.4074,0.4191,0.3855,0.3924,0.4318,0.4321,0.4323,0,0.3137,0.3156,0.3178,0.3227,0.3241,0.3285,0.3419,0.35,0.3694,0.3838,0.3958,0.4045,0.4138,0.415,0.429,0.4225,0.4283,0.4313,0.432,0.4141,0.4097,0.3892,0.3945,0.4356,0.4354,0.4351,0.4349,0,0.311,0.3132,0.3145,0.3144,0.3232,0.3264,0.3331,0.352,0.3644,0.3844,0.3998,0.4121,0.4246,0.4329,0.4421,0.4383,0.4578,0.456,0.4448,0.4436,0.4151,0.4106,0.4676,0.4675,0.4675,0.4675,0.4675,0,0.306,0.3041,0.3123,0.3104,0.3158,0.3245,0.3345,0.3458,0.3696,0.3821,0.3995,0.4117,0.431,0.4435,0.4476,0.4523,0.4652,0.4465,0.4474,0.4177,0.4136,0.45,0.4478,0.4679,0.4678,0.4677,0.4677,0,0.2986,0.301,0.303,0.3117,0.3134,0.3183,0.3341,0.3431,0.3663,0.3836,0.3912,0.4207,0.4344,0.4469,0.464,0.4602,0.4651,0.4622,0.4226,0.4183,0.4418,0.44,0.4532,0.4528,0.4524,0.4521,0.4519,0,0.2938,0.2961,0.3038,0.306,0.307,0.3144,0.3199,0.3406,0.3493,0.3825,0.388,0.4144,0.4249,0.4453,0.4442,0.4487,0.4597,0.4174,0.4045,0.4416,0.4412,0.44,0.4388,0.3721,0.3712,0.3705,0.3699,0,0.2873,0.2919,0.2901,0.3002,0.3027,0.3091,0.3156,0.3232,0.3429,0.3607,0.3841,0.3984,0.4148,0.4069,0.4109,0.4074,0.414,0.4024,0.4579,0.379,0.3657,0.365,0.3665,0.3635,0.3641,0.3646,0.365,0.3652,0.2832,0.2814,0.2852,0.2896,0.2951,0.3015,0.3024,0.3087,0.3218,0.3375,0.3594,0.3689,0.3758,0.3678,0.3568,0.3507,0.3781,0.3625,0.3646,0.3675,0.3541,0.3406,0.331,0.3315,0.3318,0.3322,0.3325,0,0.2787,0.2764,0.2775,0.2787,0.2806,0.2918,0.2972,0.2923,0.294,0.3091,0.3253,0.3066,0.3006,0.3094,0.2889,0.2863,0.2828,0.276,0.2696,0.2762,0.2821,0.2641,0.2174,0.217,0.2166,0.2163,0,0,0.275,0.2673,0.2617,0.2597,0.2662,0.266,0.2689,0.2638,0.2686,0.2648,0.2693,0.2922,0.303,0.2583,0.2499,0.231,0.252,0.222,0.3151,0.3145,0.3199,0.3334,0.3133,0,0,0,0,0]},{"header":{"parameterUnit":"m.s-1","parameterCategory":2,"la1":30.2991,"la2":30.254,"lo1":-89.0895,"lo2":-89.0444,"dy":0.0017,"dx":0.0017,"nx":28,"ny":28,"refTime":"2024-08-16T03:00:00:Z","depth":"2","parameterNumber":3,"parameterNumberName":"V-component_of_CURRENTS"},"data":[0,0,0,0,0,0,0,0,0,0,0,0,0,0,0,0,0,0,0,0,0,0,0,0,0,0,0,0,0,0,0,0,0,0,0,0,0,0,0,0,0,0,0,0,0,0,0,0,0,0,0,0,0,0,0,0,0,0,0.0074,0.0073,0,0.0053,0.0052,0.0052,0.0018,0.0017,0.0017,0.0016,-0.0054,-0.0056,-0.0057,0,0,0,0,0,0,0,0,0,0,0,0,0,0.0041,0.0042,0.0074,0.0073,0.0073,0.0053,0.0052,0.0052,0.0018,0.0017,0.0017,0.0016,-0.0054,-0.0056,-0.0057,0,0,0,0,0,0,0,0,0,0,0,0,0,0.0039,0.0042,0.0074,0.0055,0.0053,0.0053,0.0052,0.0052,0.0018,0.0017,0.0017,0.0016,-0.0053,-0.0055,-0.0058,-0.0057,0,0,-0.0064,-0.0065,0,0,0,0,0,0,0,0,0.004,0.004,0.0058,0.0056,0.0054,0.0038,0.0015,0.0014,0.0018,0.003,0.0016,0.0016,-0.0026,-0.0031,-0.0035,-0.006,-0.0063,-0.0064,-0.0066,-0.0067,-0.0067,0,0,0,0,0,0,0,0.004,0.0041,0.0064,0.0058,0.0056,0.0033,0.0032,0.0014,0.0004,0.0029,0.0027,0.0027,-0.0028,-0.0032,-0.0037,-0.0064,-0.0064,-0.0066,-0.0068,-0.0068,-0.0123,-0.0123,0,0,0,0,0,0,0.0049,0.0042,0.0064,0.0063,0.0047,0.0035,0.0034,0.0043,0.0005,-0.0001,0.0028,0.0026,-0.0028,-0.0034,-0.0039,-0.0038,-0.0067,-0.0069,-0.007,-0.0123,-0.0123,-0.0123,0,0,0,0,0,0,0.0048,0.0052,0.0065,0.0052,0.0053,0.0036,0.0047,0.0043,0.004,0.0005,-0.0002,0.0029,-0.0029,-0.0036,-0.0053,-0.0041,-0.007,-0.0071,-0.0123,-0.0123,-0.0123,-0.0037,0,0,0,0,0,0,0.0048,0.0052,0.0065,0.0053,0.0054,0.0077,0.0048,0.0043,0.0042,0.0039,0.0004,-0.0004,-0.003,-0.005,-0.0056,-0.0045,-0.0073,-0.0123,-0.0123,-0.0123,-0.004,-0.0034,-0.003,0,0,0,0,0,0.0047,0.0075,0.0066,0.0069,0.0072,0.0078,0.0077,0.006,0.0043,0.0052,0.002,-0.0003,-0.0057,-0.0051,-0.0058,-0.0047,-0.0122,-0.0123,-0.0123,-0.0042,-0.0035,-0.003,0,0,0,0,0,0,0.007,0.0074,0.0064,0.0092,0.0088,0.0073,0.0085,0.0067,0.005,0.0045,0.0003,-0.0006,-0.0022,-0.0048,-0.0042,-0.0069,-0.0097,-0.0098,-0.0033,-0.0027,-0.0022,0.0005,-0.0075,0,0,0,0,0,0.0081,0.0104,0.0095,0.0119,0.012,0.0101,0.0101,0.0089,0.0072,0.0064,0.0036,0.0001,-0.0028,-0.0037,-0.0068,-0.0071,-0.0094,-0.0074,-0.0069,-0.0064,-0.0049,-0.007,-0.0064,-0.0125,-0.0125,-0.0125,0,0,0.0097,0.0103,0.0115,0.0125,0.0121,0.0134,0.01,0.0109,0.0118,0.0059,0.0062,0.0018,-0.0028,-0.0038,-0.0048,-0.0056,-0.0062,-0.0065,-0.006,-0.0047,-0.0069,-0.0063,-0.0058,-0.0125,-0.0125,-0.0125,0,0,0.0145,0.0146,0.0179,0.0178,0.018,0.0168,0.0172,0.0157,0.0151,0.015,0.0097,0.0066,0.0035,0.0001,-0.002,-0.0006,-0.004,-0.0024,0.0035,0.0015,0.0021,0.0026,-0.0,0.0001,-0.0013,-0.0013,-0.0013,0,0.0165,0.0199,0.0189,0.0214,0.022,0.0185,0.0212,0.0204,0.0184,0.0188,0.0164,0.0101,0.0058,0.0037,0.0036,0.0009,-0.001,0.0022,0.0025,0.0029,0.0033,0.0005,0.0006,-0.0009,-0.001,-0.001,-0.001,0,0.0229,0.0252,0.0272,0.0291,0.0297,0.0314,0.0299,0.0299,0.0283,0.0276,0.0257,0.0191,0.0163,0.0128,0.0091,0.0083,0.0058,0.0031,0.002,0.0045,0.0012,0.0012,-0.0003,-0.0005,-0.0006,-0.0007,0,0,0.0279,0.0312,0.0317,0.0342,0.0335,0.0356,0.0366,0.0379,0.0409,0.0366,0.0398,0.0316,0.0285,0.0257,0.019,0.0159,0.0154,0.0115,0.0112,0.0106,0.011,0.0044,0.0037,0.0133,0.0134,0.0134,0.0078,0,0.0329,0.0398,0.0393,0.0449,0.048,0.0452,0.0476,0.048,0.0481,0.0504,0.043,0.0432,0.0335,0.0327,0.028,0.0186,0.0157,0.0171,0.0072,0.0069,0.0022,0.0036,0.007,0.0019,0.0077,0.0077,0.0077,0,0.0384,0.0426,0.0495,0.0542,0.0554,0.0583,0.0623,0.0642,0.0652,0.0654,0.0631,0.0585,0.0524,0.0449,0.0311,0.0327,0.0236,0.0153,0.0149,0.0061,0.0002,0.0001,0.0015,0.0075,0.0075,0.0075,0.0075,0,0.0432,0.0494,0.0558,0.0571,0.0616,0.065,0.0675,0.0698,0.075,0.0761,0.0808,0.0713,0.0702,0.0557,0.0373,0.0359,0.0222,0.0186,0.0036,0.003,0.0025,0.0018,0.0109,0.0109,0.0109,0.0109,0.0109,0,0.048,0.0527,0.0597,0.0632,0.0728,0.073,0.0832,0.0842,0.0896,0.099,0.0903,0.0944,0.0735,0.0629,0.0434,0.0227,0.0271,0.0052,0.0015,0.0052,0.0048,0.0069,0.0065,0.0107,0.0108,0.0108,0.0108,0,0.0513,0.0548,0.0636,0.0717,0.0757,0.083,0.0948,0.1026,0.1056,0.1176,0.1192,0.1141,0.0997,0.0753,0.0524,0.0332,0.0117,0.0034,0.0081,0.0049,-0.0074,-0.0073,-0.0119,-0.0122,-0.0124,-0.0126,-0.0128,0,0.054,0.0592,0.0716,0.0791,0.0836,0.0951,0.1039,0.1102,0.1205,0.1299,0.1374,0.1285,0.1231,0.0844,0.0482,0.0129,0.0097,-0.006,-0.0092,-0.0063,-0.0095,-0.0091,-0.0087,-0.0063,-0.0064,-0.0064,-0.0065,0,0.0601,0.0644,0.0713,0.0877,0.0993,0.1133,0.1273,0.1389,0.1483,0.1575,0.1687,0.1647,0.1285,0.0931,0.0422,0.0185,-0.0013,-0.0089,-0.0048,-0.0023,-0.0019,-0.0048,-0.0043,-0.0072,-0.0071,-0.0071,-0.007,-0.007,0.065,0.0709,0.0821,0.0967,0.1115,0.1318,0.1457,0.1605,0.1785,0.1924,0.1885,0.1811,0.1409,0.0749,0.0341,-0.0075,-0.0059,-0.0195,-0.0188,-0.0181,-0.0177,-0.0179,-0.0261,-0.0262,-0.0262,-0.0262,-0.0262,0,0.0724,0.0783,0.0916,0.1108,0.1291,0.1362,0.1613,0.1741,0.196,0.2033,0.2077,0.1684,0.1267,0.0813,0.0191,-0.0191,-0.0198,-0.0297,-0.0211,-0.0202,-0.0195,-0.0188,-0.0277,-0.0278,-0.0279,-0.028,0,0,0.0764,0.088,0.0938,0.123,0.1381,0.163,0.1786,0.1959,0.2059,0.2113,0.2057,0.1917,0.138,0.0932,0.0421,0.0081,0.0031,0.0011,0.0061,0.0231,0.0243,-0.0104,-0.0082,0,0,0,0,0]}],[{"header":{"parameterUnit":"m.s-1","parameterCategory":2,"la1":30.2991,"la2":30.254,"lo1":-89.0895,"lo2":-89.0444,"dy":0.0017,"dx":0.0017,"nx":28,"ny":28,"refTime":"2024-08-16T03:00:00:Z","depth":"4","parameterNumber":2,"parameterNumberName":"U-component_of_CURRENTS"},"data":[0,0,0,0,0,0,0,0,0,0,0,0,0,0,0,0,0,0,0,0,0,0,0,0,0,0,0,0,0,0,0,0,0,0,0,0,0,0,0,0,0,0,0,0,0,0,0,0,0,0,0,0,0,0,0,0,0,0,0.171,0.1711,0,0.1757,0.1756,0.1756,0.1762,0.1762,0.1762,0.1762,0.18,0.1801,0.1802,0,0,0,0,0,0,0,0,0,0,0,0,0,0.1646,0.1646,0.171,0.1711,0.1713,0.1757,0.1756,0.1756,0.1762,0.1762,0.1762,0.1763,0.18,0.1801,0.1802,0,0,0,0,0,0,0,0,0,0,0,0,0,0.1674,0.1646,0.171,0.1726,0.1728,0.1757,0.1756,0.1756,0.1762,0.1762,0.1762,0.1763,0.18,0.1801,0.1802,0.1804,0,0,0.1806,0.1806,0,0,0,0,0,0,0,0,0.1672,0.1676,0.1722,0.1725,0.1728,0.176,0.1748,0.1774,0.1762,0.1742,0.1762,0.1763,0.179,0.1792,0.1791,0.1806,0.1808,0.1806,0.1807,0.1807,0.1808,0,0,0,0,0,0,0,0.167,0.1674,0.1721,0.1724,0.1727,0.1738,0.1741,0.1752,0.1758,0.1743,0.1746,0.1762,0.1791,0.1789,0.1792,0.1808,0.1806,0.1807,0.1808,0.1808,0.193,0.1932,0,0,0,0,0,0,0.1678,0.1672,0.172,0.1724,0.1708,0.1739,0.1742,0.1744,0.1758,0.1763,0.1762,0.1762,0.1787,0.179,0.1793,0.187,0.1807,0.1808,0.1809,0.1927,0.193,0.1933,0,0,0,0,0,0,0.1676,0.1681,0.1718,0.1705,0.1712,0.174,0.1741,0.1744,0.1779,0.1774,0.1777,0.1798,0.1787,0.1791,0.1826,0.1869,0.1809,0.181,0.1924,0.1928,0.1931,0.1978,0,0,0,0,0,0,0.1673,0.1679,0.1699,0.1705,0.1713,0.1756,0.1742,0.1745,0.179,0.1791,0.1805,0.1807,0.1788,0.1824,0.1827,0.187,0.1811,0.1921,0.1926,0.193,0.1973,0.1983,0.1991,0,0,0,0,0,0.167,0.1689,0.1699,0.1706,0.1733,0.1758,0.1762,0.1779,0.1792,0.181,0.1818,0.1808,0.1857,0.1826,0.183,0.1873,0.1919,0.1925,0.193,0.1969,0.1981,0.199,0,0,0,0,0,0,0.1667,0.1692,0.1703,0.1728,0.1754,0.1762,0.1787,0.1804,0.1826,0.1836,0.1826,0.1828,0.1883,0.1876,0.1843,0.1927,0.1892,0.1899,0.1921,0.1932,0.1941,0.195,0.1812,0,0,0,0,0,0.1678,0.1701,0.1723,0.1748,0.1763,0.1785,0.1806,0.182,0.1836,0.1848,0.1865,0.1884,0.1904,0.1915,0.1934,0.1968,0.1985,0.2006,0.2015,0.2022,0.2036,0.2092,0.2107,0.1951,0.1951,0.1951,0,0,0.1686,0.1705,0.1719,0.1751,0.177,0.1786,0.1797,0.1837,0.186,0.1849,0.1897,0.1922,0.1924,0.1964,0.1988,0.1963,0.2079,0.2029,0.2035,0.2045,0.2099,0.2114,0.2128,0.1955,0.1954,0.1954,0,0,0.1701,0.1727,0.1748,0.1764,0.1809,0.182,0.1843,0.1879,0.1906,0.1943,0.1957,0.2002,0.2027,0.2041,0.2044,0.2117,0.213,0.2146,0.2186,0.2241,0.2253,0.2265,0.2311,0.2326,0.2141,0.2141,0.2141,0,0.1718,0.1729,0.1761,0.1775,0.1793,0.1837,0.1855,0.1884,0.1934,0.1974,0.1965,0.2057,0.2053,0.2114,0.2135,0.2134,0.2176,0.2136,0.225,0.2262,0.2273,0.2317,0.2333,0.2144,0.2143,0.2143,0.2143,0,0.1723,0.1745,0.1759,0.1785,0.1814,0.1839,0.1879,0.1939,0.198,0.201,0.2106,0.2117,0.2179,0.2188,0.2171,0.2271,0.228,0.2259,0.2216,0.2291,0.2333,0.2349,0.2148,0.2147,0.2146,0.2145,0,0,0.172,0.1758,0.1763,0.177,0.182,0.1835,0.1904,0.1972,0.2034,0.2094,0.2175,0.2213,0.227,0.2283,0.2306,0.2339,0.2435,0.2341,0.2342,0.2374,0.2576,0.2388,0.2387,0.2448,0.2451,0.2454,0.2576,0,0.1716,0.1729,0.1762,0.1783,0.1787,0.1857,0.1906,0.1982,0.2061,0.2157,0.2217,0.2299,0.2293,0.2349,0.2389,0.2429,0.2481,0.2404,0.2511,0.2513,0.2326,0.2399,0.2463,0.2588,0.2591,0.2594,0.2596,0,0.1697,0.1708,0.1727,0.177,0.1784,0.1821,0.1933,0.199,0.2137,0.2208,0.2332,0.2397,0.2498,0.2468,0.2587,0.2553,0.2586,0.2595,0.26,0.2417,0.2353,0.2499,0.2624,0.2622,0.262,0.2618,0.2616,0,0.1639,0.1679,0.1693,0.1701,0.1765,0.1823,0.1883,0.202,0.2092,0.2283,0.2365,0.2498,0.2586,0.2647,0.2688,0.2667,0.2793,0.2754,0.2623,0.261,0.2722,0.2708,0.2851,0.2851,0.285,0.285,0.285,0,0.1583,0.1587,0.1675,0.1671,0.1717,0.1788,0.1885,0.1987,0.2144,0.2238,0.2406,0.2507,0.2641,0.2729,0.2743,0.2726,0.2849,0.2647,0.2631,0.274,0.2727,0.2733,0.2718,0.2854,0.2853,0.2853,0.2852,0,0.1482,0.1535,0.1561,0.1654,0.1687,0.1727,0.1867,0.1936,0.2111,0.2255,0.2327,0.2549,0.2671,0.2761,0.2864,0.2778,0.278,0.2752,0.288,0.2867,0.2554,0.254,0.2613,0.2608,0.2603,0.2599,0.2596,0,0.141,0.1421,0.1542,0.1566,0.1611,0.169,0.1745,0.1911,0.1999,0.2255,0.231,0.2517,0.2642,0.2657,0.2745,0.2768,0.2734,0.2714,0.2612,0.2554,0.2532,0.2526,0.2519,0.2588,0.2587,0.2585,0.2584,0,0.1278,0.1363,0.1399,0.1475,0.1537,0.1578,0.1683,0.1734,0.1938,0.2115,0.2271,0.2357,0.2495,0.2575,0.2618,0.2619,0.2699,0.2664,0.2673,0.2577,0.2524,0.2506,0.2504,0.2568,0.257,0.2572,0.2573,0,0.1203,0.1214,0.1306,0.136,0.1427,0.1443,0.1515,0.1625,0.1731,0.2029,0.2079,0.2298,0.2495,0.25,0.2527,0.2519,0.2474,0.2369,0.2393,0.2412,0.2278,0.2177,0.2115,0,0,0,0,0,0.1115,0.1117,0.1165,0.1214,0.1283,0.1317,0.1454,0.1543,0.1761,0.1826,0.1951,0.2079,0.2174,0.2284,0.2234,0.2385,0.2443,0.2309,0.2325,0.2476,0.2496,0.235,0,0,0,0,0,0,0.1047,0.1078,0.112,0.1085,0.109,0.1133,0.1215,0.1358,0.142,0.1667,0.1752,0.1924,0.206,0.2185,0.2188,0.221,0.2168,0.2437,0.2431,0.2466,0.2483,0.2498,0.2356,0,0,0,0,0]},{"header":{"parameterUnit":"m.s-1","parameterCategory":2,"la1":30.2991,"la2":30.254,"lo1":-89.0895,"lo2":-89.0444,"dy":0.0017,"dx":0.0017,"nx":28,"ny":28,"refTime":"2024-08-16T03:00:00:Z","depth":"4","parameterNumber":3,"parameterNumberName":"V-component_of_CURRENTS"},"data":[0,0,0,0,0,0,0,0,0,0,0,0,0,0,0,0,0,0,0,0,0,0,0,0,0,0,0,0,0,0,0,0,0,0,0,0,0,0,0,0,0,0,0,0,0,0,0,0,0,0,0,0,0,0,0,0,0,0,0.0078,0.0078,0,0.0063,0.0063,0.0063,0.0049,0.0048,0.0048,0.0048,0.0004,0.0003,0.0002,0,0,0,0,0,0,0,0,0,0,0,0,0,0.0055,0.0056,0.0078,0.0078,0.0078,0.0063,0.0063,0.0063,0.0049,0.0048,0.0048,0.0048,0.0004,0.0003,0.0002,0,0,0,0,0,0,0,0,0,0,0,0,0,0.0056,0.0056,0.0078,0.0069,0.0067,0.0063,0.0063,0.0063,0.0049,0.0048,0.0048,0.0048,0.0005,0.0003,0.0002,0.0,0,0,-0.0002,-0.0003,0,0,0,0,0,0,0,0,0.0056,0.0057,0.007,0.0069,0.0068,0.0057,0.0039,0.004,0.0049,0.0057,0.0048,0.0047,0.0019,0.0016,0.0015,-0.0002,-0.0004,-0.0003,-0.0003,-0.0004,-0.0004,0,0,0,0,0,0,0,0.0056,0.0057,0.0073,0.007,0.0069,0.0051,0.0051,0.0039,0.004,0.0056,0.0055,0.0052,0.0018,0.0017,0.0014,-0.0004,-0.0003,-0.0004,-0.0005,-0.0005,-0.0063,-0.0063,0,0,0,0,0,0,0.0059,0.0058,0.0074,0.0073,0.006,0.0052,0.0052,0.0061,0.0041,0.0037,0.0052,0.0051,0.002,0.0016,0.0013,0.0005,-0.0004,-0.0005,-0.0006,-0.0062,-0.0063,-0.0064,0,0,0,0,0,0,0.0059,0.0061,0.0074,0.0063,0.0063,0.0053,0.0063,0.0061,0.006,0.0038,0.0034,0.0053,0.0019,0.0015,0.0001,0.0003,-0.0006,-0.0007,-0.0061,-0.0062,-0.0063,-0.0007,0,0,0,0,0,0,0.0059,0.0062,0.0071,0.0064,0.0064,0.0077,0.0063,0.0061,0.0058,0.0057,0.0037,0.0033,0.0018,0.0003,-0.0001,0.0001,-0.0008,-0.006,-0.0062,-0.0063,-0.0008,-0.0006,-0.0005,0,0,0,0,0,0.0058,0.0075,0.0072,0.0073,0.0078,0.0077,0.0076,0.0067,0.0059,0.0063,0.0045,0.0033,-0.0009,0.0002,-0.0003,-0.0001,-0.006,-0.0061,-0.0063,-0.0009,-0.0007,-0.0005,0,0,0,0,0,0,0.007,0.0075,0.0071,0.0089,0.0084,0.0075,0.008,0.0069,0.006,0.0059,0.0034,0.0029,0.0011,-0.0006,0.0006,-0.0026,-0.004,-0.0042,0.0002,0.0004,0.0006,0.0016,-0.001,0,0,0,0,0,0.0077,0.0093,0.0087,0.0102,0.0102,0.0091,0.0089,0.0084,0.0072,0.0068,0.0052,0.0028,0.0001,-0.0004,-0.0029,-0.0034,-0.007,-0.0042,-0.004,-0.0038,-0.0036,-0.0098,-0.0101,-0.0069,-0.0069,-0.0069,0,0,0.0085,0.009,0.0099,0.0105,0.0103,0.0112,0.009,0.0095,0.0098,0.0065,0.0066,0.0034,-0.0003,-0.0015,-0.0024,-0.0024,-0.0065,-0.004,-0.0038,-0.0037,-0.01,-0.0103,-0.0105,-0.007,-0.0069,-0.0069,0,0,0.0111,0.0116,0.0137,0.0137,0.0137,0.013,0.0132,0.0124,0.0118,0.0113,0.0079,0.0048,0.0027,-0.0004,-0.0022,-0.0028,-0.006,-0.0035,-0.0005,-0.0064,-0.0067,-0.007,-0.011,-0.0117,-0.0025,-0.0025,-0.0025,0,0.0121,0.0149,0.0141,0.0158,0.0166,0.0141,0.0162,0.015,0.0137,0.0134,0.012,0.006,0.0028,-0.0001,-0.0005,-0.0022,-0.0053,-0.0003,-0.006,-0.0064,-0.0068,-0.0108,-0.0116,-0.0023,-0.0023,-0.0023,-0.0024,0,0.0159,0.018,0.0193,0.0209,0.0213,0.0228,0.0213,0.0209,0.0195,0.0182,0.0151,0.0099,0.0067,0.0043,0.0021,-0.0021,-0.0032,-0.0055,-0.0059,-0.0067,-0.011,-0.0119,-0.0019,-0.002,-0.0021,-0.0022,0,0,0.0183,0.0216,0.022,0.0245,0.0246,0.026,0.0258,0.0257,0.0265,0.0225,0.0223,0.0156,0.0128,0.0102,0.0059,0.0005,-0.0052,-0.0026,-0.0031,-0.0053,-0.0168,-0.016,-0.017,-0.008,-0.0082,-0.0083,-0.0182,0,0.0217,0.0271,0.0272,0.0319,0.0347,0.0329,0.0337,0.0328,0.031,0.0298,0.0225,0.0206,0.0151,0.0139,0.0073,-0.0027,-0.0077,-0.0022,-0.0168,-0.0172,-0.0154,-0.0181,-0.0088,-0.019,-0.0192,-0.0194,-0.0195,0,0.0252,0.0288,0.0348,0.0392,0.0403,0.0423,0.0441,0.0449,0.0413,0.0398,0.0351,0.0296,0.021,0.0165,-0.0006,0.0034,-0.0057,-0.0138,-0.0145,-0.0163,-0.0183,-0.0186,-0.0213,-0.0211,-0.021,-0.0209,-0.0208,0,0.0286,0.034,0.0398,0.0412,0.0452,0.0475,0.0495,0.0484,0.0509,0.0466,0.0468,0.0353,0.0305,0.0159,-0.0015,-0.0007,-0.021,-0.0221,-0.0297,-0.0297,-0.0297,-0.0293,-0.0336,-0.0336,-0.0336,-0.0335,-0.0335,0,0.0323,0.0367,0.0425,0.0458,0.0532,0.0538,0.0604,0.0598,0.0603,0.0636,0.0534,0.0513,0.0299,0.0159,0.0,-0.0184,-0.0201,-0.0298,-0.0328,-0.0271,-0.0263,-0.0303,-0.0298,-0.0339,-0.0338,-0.0338,-0.0337,0,0.0347,0.0384,0.0458,0.0524,0.0556,0.0611,0.0696,0.0736,0.0729,0.0761,0.0754,0.0625,0.044,0.0218,-0.0031,-0.0147,-0.0336,-0.0392,-0.0308,-0.0331,-0.038,-0.0371,-0.0475,-0.0475,-0.0476,-0.0476,-0.0477,0,0.0368,0.0413,0.0515,0.0572,0.0611,0.0699,0.0763,0.0801,0.0849,0.0829,0.0844,0.0684,0.0569,0.0228,-0.0015,-0.0321,-0.0358,-0.0442,-0.0418,-0.0378,-0.0397,-0.0387,-0.0378,-0.0478,-0.0478,-0.0478,-0.0478,0,0.0412,0.0447,0.0503,0.0624,0.0713,0.0818,0.0911,0.0957,0.0992,0.0984,0.0923,0.0744,0.0534,0.0249,0.0001,-0.0216,-0.0387,-0.0448,-0.0448,-0.0426,-0.0383,-0.0399,-0.0389,-0.048,-0.048,-0.0479,-0.0479,0,0.044,0.0486,0.0567,0.0667,0.0784,0.0899,0.0949,0.1006,0.1055,0.1033,0.1005,0.0772,0.0633,0.0303,0.0072,-0.0148,-0.0188,-0.0236,-0.0247,-0.0248,-0.0161,-0.0072,-0.0102,0,0,0,0,0,0.0471,0.0521,0.0611,0.0728,0.0839,0.0913,0.1031,0.1069,0.1103,0.1081,0.1052,0.0857,0.0521,0.0365,0.0149,0.0052,-0.0239,-0.0206,-0.0303,-0.0491,-0.0489,-0.0425,0,0,0,0,0,0,0.0491,0.0571,0.0606,0.0755,0.0839,0.098,0.1056,0.1083,0.1076,0.1065,0.0885,0.0811,0.0473,0.0633,0.0142,0.0074,-0.0011,-0.0366,-0.037,-0.0492,-0.049,-0.0488,-0.0422,0,0,0,0,0]}]]